Date String (YYYY-MM-DD hh:mm:ss) UTC,Instrument flags,Ambient pressure (hPa),Sample flow (lpm),Bypass flow (lpm),Sample temperature (°C),Ambient temperature (°C),ASC tube jacket temperature (°C),LED temperature (°C),Box temperature (°C),Sample RH (%),Span deviation,Mass concentration (μg/m³),Mass concentration (μg/m³),Mass concentration (μg/m³)
DateTimeUTC,F1_M11,P_M11,Q1_M11,Q2_M11,T1_M11,T2_M11,T3_M11,T4_M11,T5_M11,U1_M11,ZSPAN_M11,X2_M11,X0_M11,X1_M11
2021-10-14 21:00:00,,0824.2,4.99,0.00,24.9,24.0,00.0,34.0,26.7,20.2,0000.0,0004.51,0007.49,0004.17
2021-10-14 21:01:00,,0824.2,5.00,0.00,24.9,24.0,00.0,34.0,26.7,20.3,0000.0,0004.52,0007.51,0004.20
2021-10-14 21:02:00,,0824.2,5.00,0.00,24.9,24.1,00.0,34.0,26.8,20.4,0000.0,0004.52,0007.65,0004.21
2021-10-14 21:03:00,,0824.4,5.00,0.00,24.9,24.1,00.0,34.0,26.8,21.0,0000.0,0004.54,0008.17,0004.24
2021-10-14 21:04:00,,0824.3,5.01,0.00,25.0,24.1,00.0,34.0,26.8,21.7,0000.0,0004.60,0008.21,0004.29
2021-10-14 21:05:00,,0824.3,5.01,0.00,25.0,24.1,00.0,34.0,26.8,21.3,0000.0,0004.66,0008.45,0004.34
2021-10-14 21:06:00,,0824.2,5.00,0.00,25.0,24.2,00.0,34.0,26.9,21.2,0000.0,0004.71,0008.38,0004.39
2021-10-14 21:07:00,,0824.2,4.99,0.00,25.0,24.2,00.0,34.0,26.9,20.7,0000.0,0004.78,0008.62,0004.46
2021-10-14 21:08:00,,0824.2,5.01,0.00,25.0,24.2,00.0,34.0,26.8,20.4,0000.0,0004.89,0008.90,0004.53
2021-10-14 21:09:00,,0824.3,4.99,0.00,25.0,24.2,00.0,34.0,26.9,20.5,0000.0,0004.98,0009.20,0004.60
2021-10-14 21:10:00,,0824.3,4.99,0.00,25.0,24.2,00.0,34.1,26.9,21.3,0000.0,0005.05,0009.44,0004.65
2021-10-14 21:11:00,,0824.3,5.00,0.00,25.0,24.2,00.0,34.1,26.9,21.4,0000.0,0005.11,0009.55,0004.68
2021-10-14 21:12:00,,0824.2,5.01,0.00,25.0,24.2,00.0,34.1,26.9,21.6,0000.0,0005.18,0009.67,0004.70
2021-10-14 21:13:00,,0824.2,5.00,0.00,25.1,24.3,00.0,34.1,26.9,21.5,0000.0,0005.24,0010.17,0004.73
2021-10-14 21:14:00,,0824.2,5.00,0.00,25.1,24.3,00.0,34.1,26.9,20.9,0000.0,0005.30,0009.92,0004.78
2021-10-14 21:15:00,,0824.2,4.99,0.00,25.1,24.3,00.0,34.1,26.9,20.4,0000.0,0005.32,0009.83,0004.82
2021-10-14 21:16:00,,0824.2,5.01,0.00,25.1,24.3,00.0,34.1,27.0,20.7,0000.0,0005.33,0009.67,0004.83
2021-10-14 21:17:00,,0824.2,5.00,0.00,25.1,24.3,00.0,34.1,27.0,20.8,0000.0,0005.36,0009.70,0004.86
2021-10-14 21:18:00,,0824.3,5.00,0.00,25.1,24.3,00.0,34.1,27.0,20.3,0000.0,0005.42,0009.76,0004.89
2021-10-14 21:19:00,,0824.2,4.99,0.00,25.1,24.3,00.0,34.1,27.0,20.0,0000.0,0005.47,0009.98,0004.90
2021-10-14 21:20:00,,0824.3,5.00,0.00,25.1,24.4,00.0,34.1,27.0,19.7,0000.0,0005.53,0010.04,0004.92
2021-10-14 21:21:00,,0824.3,5.00,0.00,25.1,24.4,00.0,34.2,27.0,19.9,0000.0,0005.57,0010.02,0004.95
2021-10-14 21:22:00,,0824.2,5.00,0.00,25.1,24.4,00.0,34.2,27.0,20.5,0000.0,0005.61,0010.10,0004.97
2021-10-14 21:23:00,,0824.2,5.01,0.00,25.1,24.3,00.0,34.2,27.0,20.6,0000.0,0005.60,0010.25,0004.99
2021-10-14 21:24:00,,0824.3,5.00,0.00,25.2,24.4,00.0,34.2,27.1,20.3,0000.0,0005.63,0009.81,0005.02
2021-10-14 21:25:00,,0824.3,4.99,0.00,25.2,24.4,00.0,34.2,27.1,20.7,0000.0,0005.64,0010.60,0005.02
2021-10-14 21:26:00,,0824.2,5.00,0.00,25.2,24.4,00.0,34.2,27.1,21.0,0000.0,0005.68,0010.90,0005.03
2021-10-14 21:27:00,,0824.2,5.00,0.00,25.2,24.4,00.0,34.2,27.1,21.0,0000.0,0005.70,0011.02,0005.03
2021-10-14 21:28:00,,0824.2,5.00,0.00,25.2,24.4,00.0,34.2,27.1,20.5,0000.0,0005.70,0010.98,0005.03
2021-10-14 21:29:00,,0824.3,4.99,0.00,25.2,24.4,00.0,34.2,27.1,20.5,0000.0,0005.67,0010.85,0005.02
2021-10-14 21:30:00,,0824.3,5.02,0.00,25.2,24.4,00.0,34.2,27.1,20.6,0000.0,0005.63,0010.51,0005.03
2021-10-14 21:31:00,,0824.2,5.00,0.00,25.2,24.4,00.0,34.2,27.1,20.7,0000.0,0005.60,0010.36,0005.03
2021-10-14 21:32:00,,0824.2,4.99,0.00,25.2,24.4,00.0,34.3,27.1,20.6,0000.0,0005.59,0010.23,0005.03
2021-10-14 21:33:00,,0824.3,5.01,0.00,25.2,24.4,00.0,34.3,27.1,20.6,0000.0,0005.58,0010.17,0005.04
2021-10-14 21:34:00,,0824.3,5.01,0.00,25.3,24.4,00.0,34.3,27.1,20.7,0000.0,0005.60,0010.03,0005.04
2021-10-14 21:35:00,,0824.3,4.99,0.00,25.3,24.4,00.0,34.3,27.1,20.4,0000.0,0005.58,0009.81,0005.04
2021-10-14 21:36:00,,0824.3,4.99,0.00,25.3,24.4,00.0,34.3,27.2,20.3,0000.0,0005.60,0009.04,0005.05
2021-10-14 21:37:00,,0824.3,5.01,0.00,25.3,24.4,00.0,34.3,27.1,20.0,0000.0,0005.60,0008.78,0005.05
2021-10-14 21:38:00,,0824.4,4.99,0.00,25.3,24.4,00.0,34.3,27.1,20.3,0000.0,0005.57,0008.64,0005.07
2021-10-14 21:39:00,,0824.3,5.00,0.00,25.3,24.4,00.0,34.3,27.1,20.4,0000.0,0005.57,0008.79,0005.08
2021-10-14 21:40:00,,0824.3,5.00,0.00,25.3,24.4,00.0,34.3,27.1,20.0,0000.0,0005.58,0008.81,0005.09
2021-10-14 21:41:00,,0824.3,4.99,0.00,25.3,24.4,00.0,34.3,27.1,19.9,0000.0,0005.60,0008.83,0005.09
2021-10-14 21:42:00,,0824.3,5.00,0.00,25.3,24.4,00.0,34.3,27.1,20.0,0000.0,0005.62,0008.85,0005.10
2021-10-14 21:43:00,,0824.3,5.00,0.00,25.3,24.4,00.0,34.3,27.1,20.3,0000.0,0005.62,0008.86,0005.12
2021-10-14 21:44:00,,0824.2,5.00,0.00,25.3,24.4,00.0,34.3,27.1,20.3,0000.0,0005.61,0008.92,0005.12
2021-10-14 21:45:00,,0824.2,5.01,0.00,25.3,24.4,00.0,34.3,27.1,20.3,0000.0,0005.62,0008.92,0005.12
2021-10-14 21:46:00,,0824.2,5.00,0.00,25.3,24.4,00.0,34.3,27.2,20.1,0000.0,0005.62,0008.96,0005.12
2021-10-14 21:47:00,,0824.2,5.00,0.00,25.3,24.5,00.0,34.3,27.2,20.3,0000.0,0005.61,0008.93,0005.11
2021-10-14 21:48:00,,0824.2,4.99,0.00,25.3,24.5,00.0,34.3,27.2,20.2,0000.0,0005.58,0008.87,0005.11
2021-10-14 21:49:00,,0824.2,5.01,0.00,25.3,24.5,00.0,34.3,27.2,20.4,0000.0,0005.58,0008.84,0005.09
2021-10-14 21:50:00,,0824.2,4.99,0.00,25.3,24.5,00.0,34.3,27.2,20.1,0000.0,0005.60,0008.73,0005.08
2021-10-14 21:51:00,,0824.2,5.00,0.00,25.3,24.5,00.0,34.4,27.2,20.4,0000.0,0005.59,0008.71,0005.07
2021-10-14 21:52:00,,0824.1,5.00,0.00,25.3,24.5,00.0,34.4,27.2,20.4,0000.0,0005.55,0008.69,0005.04
2021-10-14 21:53:00,,0824.1,4.99,0.00,25.4,24.5,00.0,34.4,27.2,20.5,0000.0,0005.49,0008.61,0005.02
2021-10-14 21:54:00,,0824.1,5.01,0.00,25.4,24.5,00.0,34.4,27.2,21.0,0000.0,0005.51,0009.23,0005.00
2021-10-14 21:55:00,,0824.2,5.00,0.00,25.4,24.6,00.0,34.4,27.2,20.9,0000.0,0005.53,0009.38,0005.00
2021-10-14 21:56:00,,0824.2,5.00,0.00,25.4,24.6,00.0,34.4,27.2,20.5,0000.0,0005.50,0009.31,0004.99
2021-10-14 21:57:00,,0824.1,5.01,0.00,25.4,24.6,00.0,34.4,27.3,20.5,0000.0,0005.47,0009.25,0004.97
2021-10-14 21:58:00,,0824.2,5.00,0.00,25.4,24.6,00.0,34.4,27.3,20.0,0000.0,0005.45,0009.20,0004.96
2021-10-14 21:59:00,,0824.2,4.99,0.00,25.4,24.6,00.0,34.4,27.3,20.0,0000.0,0005.48,0009.33,0004.94
